Location: Antioch Baptist Church
(32.6696°N, 85.7327°W)
Time: 11:13:06
(UTC+00:00)

Cosmos 2297 - Pass Details

Date: 14 July 2020
Orbit: 835 x 859 km, 71.0° (Epoch: 08 August)

Event Time Altitude Azimuth Distance (km) Brightness Sun altitude
Rises 03:51:45 0° 342° (NNW) 3,430 8.0 -28.9°
Reaches altitude 10° 03:54:14 10° 344° (NNW) 2,488 7.0 -29.2°
Enters shadow 03:59:19 66° 23° (NNE) 926 3.9 -29.7°
